Regional Weather Roundup
Issued by NWS

Home | Current Version | Previous Version | Text Only | Print | Product List | Glossary Off
Versions: 1 2 3 4 5 6 7 8 9 10 11 12 13 14 15 16 17 18 19 20 21 22 23 24 25 26 27 28 29 30 31 32 33 34 35 36 37 38 39 40 41 42 43 44 45 46 47 48 49 50

920
ASUS43 KLSX 050257
RWRMO

WEATHER SUMMARY FOR MISSOURI
NATIONAL WEATHER SERVICE SPRINGFIELD MO
1000 PM CDT WED MAY 04 2016

NOTE: "FAIR" INDICATES FEW OR NO CLOUDS BELOW 12,000 FEET WITH NO
       SIGNIFICANT WEATHER AND/OR OBSTRUCTIONS TO VISIBILITY.
       CURRENT SKY AND/OR WEATHER CONDITIONS ARE NOT AVAILABLE FOR
       CHILLICOTHE AND FARMINGTON.

MOZ001>031-035>038-043-044-053-054-050400-
...NORTHERN AND WESTERN MISSOURI...

CITY           SKY/WX    TMP DP  RH WIND       PRES   REMARKS
KANSAS CTY INT CLEAR     57  36  45 N7        30.00R
LEE`S SUMMIT   CLEAR     59  37  44 N3        30.00R
ST JOSEPH      CLEAR     55  39  54 CALM      30.00R
CHILLICOTHE      N/A     50  44  80 CALM      29.98R

$$
MOZ066>068-077>081-088>096-101>105-050400-
...SOUTHWEST MISSOURI...

CITY           SKY/WX    TMP DP  RH WIND       PRES   REMARKS
SPRINGFIELD    CLEAR     58  37  45 NW5       29.97R
JOPLIN         CLEAR     58  42  55 CALM      30.00R

$$
MOZ032>034-039>042-045>050-055>058-069>072-050400-
...CENTRAL MISSOURI...

CITY           SKY/WX    TMP DP  RH WIND       PRES   REMARKS
COLUMBIA       NOT AVBL
JEFFERSON CITY PTCLDY    56  37  49 NW3       29.95R
ROLLA          CLEAR     53  36  52 NW5       29.93R
SEDALIA        CLEAR     56  39  53 NW6       29.98R
WARRENSBURG    CLEAR     55  37  50 NW3       29.98R

$$
MOZ051-052-059>065-050400-
...EAST CENTRAL MISSOURI...

CITY           SKY/WX    TMP DP  RH WIND       PRES   REMARKS
ST LOUIS INTL  PTCLDY    56  37  49 W6        29.90S

$$
MOZ072>076-082>087-097>100-106>115-050400-
...SOUTH CENTRAL AND SOUTHEAST MISSOURI...

CITY           SKY/WX    TMP DP  RH WIND       PRES   REMARKS
CAPE GIRARDEAU CLEAR     57  40  52 NE9       29.90R
POPLAR BLUFF   CLEAR     57  40  52 N8        29.90R
WEST PLAINS    CLEAR     56  34  43 NW5       29.95R

$$



USA.gov is the U.S. government's official web portal to all federal, state and local government web resources and services.